CAPE
0 0 0 0 0 0 0 0 0 0 0 0 0 0 0 0 0 0 0 0 0 0 0 0 0 0 0 0 0 0 0 0 0 358 957 945 771 718 109 148 428 357 248 395
0 0 0 0 0 0 0 0 0 0 0 0 0 0 0 0 0 0 0 0 0 0 0 0 0 0 0 0 0 0 0 0 0 0 22 272 366 631 744 569 809 566 393 441
0 0 0 0 0 0 0 0 0 0 0 0 0 0 0 8 0 0 0 0 0 0 0 0 0 0 0 0 0 3 0 0 0 0 190 108 0 87 638 554 512 658 550 470
0 0 0 0 0 0 0 0 0 0 0 0 0 0 0 10 0 0 0 0 0 0 0 0 0 0 0 0 0 2 0 0 0 0 37 257 288 118 458 599 475 675 603 506
0 0 0 0 0 0 0 0 0 0 0 0 0 9 0 2 0 0 0 0 0 0 0 0 0 0 0 0 0 0 72 2 0 0 1 419 710 772 737 635 494 692 601 458
0 0 0 0 0 0 0 0 0 0 0 5 0 0 0 11 0 0 0 0 0 0 0 0 0 0 0 0 0 0 0 87 0 0 26 230 829 720 835 626 522 450 471 347
0 0 0 0 0 0 0 0 0 0 0 0 0 0 25 8 0 0 0 0 0 0 0 0 0 0 0 0 0 0 0 6 7 0 63 445 799 788 772 660 489 510 377 207
0 0 0 0 0 0 0 2 4 1 0 0 0 8 35 1 1 0 0 0 0 0 0 0 0 0 0 0 0 0 0 0 8 0 38 292 1008 1081 810 711 483 431 319 181
0 0 0 0 0 0 0 1 11 0 0 0 0 2 51 0 0 0 0 0 0 0 0 0 0 0 0 0 0 0 0 0 0 0 43 202 468 1016 845 685 542 452 330 148
0 0 0 0 0 1 10 1 11 3 0 0 0 0 1 2 0 0 0 0 0 0 0 0 0 0 0 0 23 47 0 0 0 14 181 391 506 600 887 628 520 537 330 209
0 0 0 0 0 6 2 1 12 12 0 0 0 0 27 12 0 0 0 0 0 0 0 1 0 1 0 0 26 12 40 14 45 39 247 906 931 668 857 437 491 565 294 241
0 0 0 0 0 0 0 0 2 0 0 1 0 0 29 18 0 0 0 0 0 0 1 1 0 0 1 0 101 408 85 23 277 386 593 937 1330 950 609 484 495 521 136 7
0 0 0 0 0 0 0 0 0 4 2 1 0 0 8 0 0 0 0 0 0 0 1 2 1 3 24 105 201 245 186 91 82 784 730 755 1147 909 561 539 517 252 3 1
0 0 2 0 2 0 0 0 0 12 3 0 3 2 0 0 0 0 0 0 0 0 1 2 2 2 2 75 98 46 0 2 0 0 1 717 628 648 478 338 15 2 1 3
0 0 0 2 0 0 2 0 3 5 2 9 2 2 0 0 0 5 0 0 0 0 0 2 3 3 5 19 7 1 0 0 0 0 163 247 383 129 11 1 2 3 4 4
0 0 0 0 0 0 0 5 0 0 13 0 0 0 0 0 0 0 0 0 0 0 1 2 2 3 1 1 3 0 1 0 0 0 4 31 36 1 1 0 0 6 3 7
0 0 0 0 0 0 0 9 5 1 10 0 0 0 0 0 2 11 2 0 0 0 2 2 2 3 5 3 3 1 2 3 2 4 0 0 0 1 4 2 2 7 7 4
0 0 0 0 0 0 66 22 15 1 6 0 0 0 3 7 10 28 0 0 0 0 0 2 2 2 2 3 2 0 2 3 1 3 3 1 1 2 3 6 7 6 4 3
0 0 6 0 0 0 34 5 0 0 0 0 0 0 0 0 5 15 5 0 0 0 0 1 2 3 2 3 3 1 1 2 1 1 2 5 0 0 1 5 6 5 3 1
31 45 14 0 2 8 16 1 1 0 1 0 0 0 0 1 0 7 11 0 0 0 0 1 1 1 0 3 1 0 2 2 2 0 2 4 5 5 5 3 4 5 4 4
0 0 0 0 4 23 0 1 2 0 0 3 2 1 1 3 21 39 2 0 0 0 0 0 1 2 2 3 0 1 1 2 1 0 1 2 3 4 5 3 1 0 0 0
0 0 0 4 1 0 0 0 0 6 21 6 0 3 5 10 23 20 0 0 0 0 0 0 1 1 1 2 1 3 2 1 2 1 0 2 2 3 3 1 0 0 0 0
0 1 6 1 0 0 0 0 0 7 0 1 0 0 0 9 34 5 0 0 0 1 1 0 1 1 2 2 1 2 1 2 2 3 2 2 2 2 1 1 0 0 0 0
0 0 0 0 0 0 0 0 2 0 0 0 2 0 17 19 31 3 0 0 0 0 1 0 1 1 1 1 0 1 1 1 2 3 3 2 2 2 0 0 0 0 0 0
0 0 0 0 0 2 1 3 6 0 0 2 7 0 14 33 17 0 0 0 0 1 1 1 1 1 2 1 0 0 0 1 2 2 2 2 1 0 0 0 0 0 0 0
0 0 0 1 0 0 0 0 0 0 0 0 9 5 18 37 11 0 0 0 0 1 2 2 0 2 2 1 0 0 0 1 2 2 2 0 0 0 0 0 0 0 0 0
CIN
0 0 0 0 0 0 0 0 0 0 0 0 0 0 0 0 0 0 0 0 0 0 0 0 0 0 0 0 0 0 0 0 0 -39 -34 -22 -16 -25 -133 -114 -94 -137 -151 -109
0 0 0 0 0 0 0 0 0 0 0 0 0 0 0 0 0 0 0 0 0 0 0 0 0 0 0 0 0 0 0 0 0 0 -18 -80 -60 -14 -33 -33 -33 -74 -123 -107
0 0 0 0 0 0 0 0 0 0 0 0 0 0 0 -60 0 0 0 0 0 0 0 0 0 0 0 0 0 -112 -120 0 0 0 -72 -79 0 -107 -7 -44 -44 -33 -47 -109
0 0 0 0 0 0 0 0 0 0 0 0 0 0 0 -71 0 0 0 0 0 0 0 0 0 0 0 0 0 -191 -69 0 0 0 -22 -19 -16 -66 -45 -25 -38 -28 -62 -115
0 0 0 0 0 0 0 0 0 0 0 0 0 -17 0 -53 0 0 0 0 0 0 0 0 0 0 0 0 0 0 -241 -144 0 0 -3 -31 -23 -12 -56 -37 -21 -21 -46 -115
0 0 0 0 0 0 0 0 0 0 0 -11 0 0 0 -60 0 0 0 0 0 0 0 0 0 0 0 0 0 0 0 -193 -58 0 -221 -35 -34 -23 -24 -55 -27 -26 -76 -139
0 0 0 0 0 0 0 0 0 0 0 0 0 0 -12 -21 0 0 0 0 0 0 0 0 0 0 0 0 0 0 0 -197 -186 0 -149 -28 -34 -43 -21 -48 -42 -28 -76 -160
0 0 0 0 0 0 0 -18 -14 -2 0 0 0 -19 -25 -71 -42 0 0 0 0 0 0 0 0 0 0 0 0 0 0 0 -274 0 -174 -51 -30 -29 -29 -41 -55 -53 -90 -186
0 0 0 0 0 0 0 -4 -21 0 0 0 0 -30 -43 0 0 0 0 0 0 0 0 0 0 0 0 0 0 0 0 0 0 0 -94 -68 -46 -24 -27 -31 -51 -42 -70 -145
0 0 0 0 0 -11 -14 -23 -9 -7 0 0 0 0 -22 -23 0 0 0 0 0 0 0 0 0 0 0 0 -126 -139 0 0 0 -128 -57 -66 -61 -51 -29 -28 -36 -23 -50 -69
0 0 0 0 0 -1 -16 -8 -3 -10 -0 0 0 0 -18 -14 0 0 0 0 0 0 0 0 0 0 0 0 -188 -47 -130 -141 -71 -120 -57 -58 -45 -57 -32 -34 -14 -18 -47 -70
0 0 0 0 -0 0 0 0 -12 0 0 -48 -0 0 -34 -22 -22 0 0 0 0 0 0 0 0 0 -10 0 -236 -92 -130 -124 -89 -80 -48 -29 -25 -48 -48 -38 -17 -18 -82 -212
0 0 0 0 0 0 0 0 0 -12 -19 -13 -7 0 -14 0 0 0 0 0 0 0 0 0 0 -167 -184 -118 -146 -157 -192 -157 -269 -53 -23 -10 -16 -19 -34 -32 -20 -34 0 0
0 0 -2 -2 -1 -1 0 0 0 -4 -6 -13 -11 -2 0 0 0 0 0 0 0 0 0 0 0 0 -61 -41 -108 -242 0 -157 0 0 -47 -25 -29 -19 -37 -34 -101 0 0 0
0 0 -1 -1 0 0 -9 -1 -9 -40 -9 -1 -7 -7 0 0 0 -14 -36 0 0 0 0 0 0 0 -2 -1 -51 -57 0 0 0 0 -86 -94 -78 -98 -26 0 0 0 0 0
0 0 0 0 0 0 0 -22 0 0 -14 0 0 0 0 0 0 0 0 0 0 0 0 0 0 0 0 0 -7 0 -71 -2 -0 -0 -39 -207 -277 0 0 0 0 0 0 0
0 0 0 0 0 0 0 -3 -6 -2 -21 0 0 0 0 0 -13 -34 -42 0 0 0 0 0 0 0 0 0 0 0 0 -41 0 -0 0 0 0 0 0 0 0 0 0 0
0 0 0 0 0 0 -11 -51 -38 -2 -32 0 0 0 -12 -18 -29 -42 0 0 0 0 0 0 0 0 0 0 0 0 0 0 0 0 0 0 0 0 0 0 0 0 0 0
0 -4 -13 0 0 0 -12 -47 0 -1 -16 0 0 0 0 0 -19 -7 -52 -12 0 0 0 0 0 0 0 0 0 0 0 0 0 0 0 0 0 0 0 0 0 0 0 0
-28 -8 -12 0 -1 -2 -4 0 -9 0 -20 0 0 0 0 -7 0 -9 -59 0 0 0 0 0 0 0 0 0 0 0 0 0 0 0 0 0 0 0 0 0 0 0 0 0
0 0 0 0 -3 -12 0 -12 -20 0 0 -10 -15 -21 -22 -17 -4 -17 -78 0 0 0 0 0 0 0 0 0 0 0 0 0 0 0 0 0 0 0 0 0 0 0 0 0
0 0 0 -2 -4 0 -21 0 0 -3 -3 -10 0 -31 -17 -15 -16 -27 0 0 0 0 0 0 0 0 0 0 0 0 0 0 0 0 0 0 0 0 0 0 0 0 0 0
0 -4 -8 -1 -2 0 0 0 -9 -12 -0 -15 -0 -0 0 -18 -17 -45 0 0 0 0 0 0 0 0 0 0 0 0 0 0 0 0 0 0 0 0 0 0 0 0 0 0
0 0 0 0 0 0 0 -6 -27 0 -29 -3 -8 -4 -23 -18 -23 -53 0 0 0 0 0 0 0 0 0 0 0 0 0 0 0 0 0 0 0 0 0 0 0 0 0 0
0 0 0 0 0 -5 -5 -15 -10 -3 0 -13 -15 0 -14 -14 -48 -8 0 0 0 0 0 0 0 0 0 0 0 0 0 0 0 0 0 0 0 0 0 0 0 0 0 0
0 0 0 -1 0 0 0 0 0 0 0 0 -12 -13 -17 -16 -41 0 0 0 0 0 0 0 0 0 0 0 0 0 0 0 0 0 0 0 0 0 0 0 0 0 0 0
Wind_Speed
22 14 18 18 22 24 28 31 31 27 29 33 36 40 37 35 34 26 20 24 28 31 33 33 32 26 25 26 24 21 18 27 32 37 39 42 41 32 32 32 28 22 20 18
24 18 14 16 23 25 26 30 31 29 36 37 40 37 40 43 14 20 23 28 32 35 37 38 38 36 32 27 27 26 22 21 27 37 39 39 46 40 37 34 30 25 22 19
31 22 21 18 23 27 27 27 32 35 38 34 36 35 33 20 20 22 27 32 34 37 40 43 44 43 42 38 35 32 27 23 26 32 36 39 43 48 52 46 37 31 24 20
23 21 29 23 26 26 27 30 32 32 37 34 33 36 36 21 25 26 30 33 38 43 49 50 51 50 48 46 43 41 30 28 27 28 36 41 42 45 51 48 43 43 27 21
29 22 19 22 23 28 26 29 33 32 38 35 28 23 26 24 27 31 34 39 44 49 52 53 51 48 38 40 41 42 38 29 30 30 30 39 43 42 45 40 33 29 20 19
32 37 10 19 23 24 29 37 34 37 28 22 20 27 25 25 29 35 39 45 51 53 56 53 48 43 45 44 45 43 43 34 30 30 32 33 43 43 45 39 36 29 26 21
28 30 25 26 30 29 32 33 30 27 26 25 36 28 20 25 31 35 43 49 52 53 53 51 49 46 45 49 50 46 43 41 35 31 32 34 40 45 45 40 37 33 29 25
28 27 31 36 29 23 31 23 26 28 31 33 30 18 21 26 30 39 44 51 53 52 50 47 46 46 46 48 52 49 44 43 36 37 35 36 38 46 47 41 37 35 32 26
26 24 34 13 30 26 24 27 20 22 24 26 21 22 21 33 40 44 50 53 56 52 52 50 48 43 43 46 49 33 36 38 39 41 38 37 40 45 48 44 39 37 30 24
21 16 23 33 23 20 19 17 20 24 27 28 25 33 29 38 41 47 52 56 53 53 50 49 48 46 46 48 30 15 19 21 42 42 37 37 40 45 48 45 41 38 32 26
27 25 20 27 27 23 22 20 18 18 21 21 32 32 28 38 43 48 50 51 49 48 48 50 49 46 45 42 35 25 22 31 47 40 29 38 41 45 48 46 42 36 33 28
23 22 24 8 9 22 24 26 24 23 19 11 6 31 23 38 44 43 47 50 47 46 48 40 44 42 41 31 37 31 24 22 26 30 30 37 40 42 48 46 44 35 32 28
24 23 27 28 23 29 33 29 13 13 23 21 25 30 37 39 44 43 46 50 49 43 41 19 17 33 37 40 36 28 20 18 22 25 35 39 40 43 45 42 37 35 37 22
18 19 18 19 11 13 23 13 12 17 12 21 22 38 36 44 46 45 43 49 49 42 36 19 18 17 39 40 36 28 23 23 25 25 31 39 39 38 38 33 29 33 26 23
16 17 16 13 16 22 27 33 27 22 15 14 33 38 38 44 45 42 41 42 45 34 44 21 20 18 16 23 28 27 27 29 28 30 32 30 29 29 26 27 28 27 21 23
20 16 13 13 9 9 23 30 20 17 21 24 26 32 36 36 42 40 39 41 46 31 32 19 18 16 22 18 28 28 26 25 35 35 18 12 17 21 23 32 23 25 21 16
12 16 19 20 24 29 21 20 22 25 24 24 28 28 35 39 44 37 38 37 21 22 14 32 22 20 20 26 24 28 23 22 15 19 8 6 10 14 18 20 23 23 22 18
8 11 16 19 18 21 23 26 29 33 25 27 22 20 26 38 36 27 31 34 34 19 14 14 18 21 26 27 30 26 23 20 11 8 9 6 9 18 17 17 22 18 17 15
1 8 20 19 29 15 21 30 29 22 22 30 36 28 30 32 25 23 28 29 32 38 27 14 12 30 26 30 28 28 23 14 11 7 5 8 9 13 14 15 15 15 16 14
5 8 18 15 19 21 27 33 32 29 18 39 41 36 36 36 37 24 25 31 34 31 27 20 14 33 26 27 27 28 17 14 10 5 5 7 11 13 14 10 11 14 17 19
18 18 17 17 19 17 21 32 30 29 23 33 35 35 38 35 25 23 25 34 34 33 27 28 30 36 28 26 23 23 20 16 6 3 5 7 9 9 12 11 13 16 17 17
20 19 20 19 20 19 32 28 33 26 24 31 32 34 34 34 28 29 29 31 33 36 31 23 28 32 31 11 10 18 18 16 3 6 8 5 9 12 16 20 15 14 16 21
21 22 19 12 15 31 34 33 27 24 29 29 31 33 36 34 30 29 31 32 30 31 24 19 24 29 32 26 22 23 23 10 3 5 12 12 15 14 12 18 15 18 13 15
27 27 25 29 27 37 31 27 26 28 29 28 29 30 33 33 28 29 32 32 30 28 29 18 26 29 30 23 20 21 9 3 11 19 12 11 13 15 15 13 15 16 12 11
25 28 25 29 15 29 28 31 27 27 28 29 26 29 30 29 27 27 31 33 30 28 27 30 29 27 23 19 16 11 12 5 9 10 13 11 10 14 13 9 8 8 10 12
20 17 21 24 29 29 33 33 33 31 27 28 21 25 28 22 24 25 29 31 30 28 30 32 32 28 22 15 10 6 13 5 9 12 14 15 16 14 12 13 13 13 15 15
Wind_Direction
348 343 336 341 346 336 332 327 324 328 329 328 322 316 312 311 310 324 336 336 333 332 331 331 328 328 316 291 286 281 277 277 268 260 258 256 251 252 246 248 244 231 235 232
346 331 350 343 340 335 331 327 325 329 321 321 315 314 300 298 348 352 336 334 332 327 323 314 310 316 314 309 295 284 275 269 270 263 259 257 255 252 252 249 241 232 228 228
337 339 339 343 343 336 334 332 330 326 320 322 317 315 309 339 347 336 335 337 333 327 320 312 306 302 299 300 297 290 281 269 265 268 260 255 253 255 248 243 249 235 230 228
356 352 339 345 340 342 336 328 326 325 323 323 323 312 305 327 330 333 333 334 331 323 322 311 304 296 293 291 290 288 280 272 266 262 261 252 247 243 245 246 251 240 224 228
342 337 336 338 341 337 337 331 329 326 319 323 329 324 316 335 323 323 329 330 325 323 323 315 308 306 303 299 297 294 287 268 264 262 261 252 248 247 245 245 242 240 221 225
340 341 354 350 344 346 336 324 327 320 332 341 346 330 319 328 324 321 326 328 325 324 321 318 314 309 305 301 294 292 287 276 259 256 260 252 246 244 242 244 241 242 240 232
349 356 349 355 335 341 336 334 335 342 343 339 316 324 339 325 333 330 326 329 327 328 322 321 318 316 309 298 293 290 285 279 259 252 257 253 247 242 242 242 239 238 238 232
352 347 344 319 339 346 339 360 350 339 333 326 325 348 339 339 341 337 336 332 334 331 330 330 328 324 316 305 294 289 281 274 262 248 254 254 247 243 241 239 235 235 235 231
356 354 299 262 335 348 349 344 3 352 349 343 351 347 336 330 330 335 336 338 335 331 328 329 328 333 325 315 295 293 282 268 262 248 249 252 247 242 239 238 235 231 231 222
5 343 3 337 355 9 4 5 358 359 347 341 342 328 330 324 333 336 336 339 338 335 335 333 330 330 325 314 323 304 285 266 259 247 245 248 246 239 237 236 234 228 223 218
354 0 1 351 353 353 4 10 13 14 4 356 322 324 344 336 339 342 341 350 346 351 345 333 327 319 322 324 333 321 310 278 238 243 237 245 244 237 235 234 231 227 213 211
8 8 0 3 40 13 4 0 3 3 3 19 289 311 5 347 347 354 354 350 352 358 349 356 343 317 333 305 319 321 318 290 252 242 241 245 241 236 232 231 228 224 201 195
9 10 1 357 2 316 312 293 12 12 353 347 337 336 338 346 346 357 355 347 347 1 2 352 356 8 358 342 326 325 330 284 265 249 240 238 236 234 230 230 223 210 181 174
30 29 22 10 359 267 272 274 274 5 17 353 349 317 339 337 341 351 359 351 349 1 5 330 329 2 360 345 327 308 279 255 253 257 248 236 233 232 228 223 203 184 186 191
31 24 20 8 265 267 283 335 351 357 14 8 344 330 335 336 344 355 1 5 3 8 349 322 327 333 327 319 319 309 294 258 256 256 244 240 235 225 217 212 170 193 178 176
5 14 13 9 19 262 359 347 22 23 8 6 4 346 348 353 352 358 2 8 1 13 12 327 325 325 318 23 321 325 316 282 249 224 253 231 223 207 219 218 210 193 170 163
9 20 19 18 357 317 11 14 11 5 11 12 11 3 351 346 342 357 4 10 357 15 325 318 321 316 319 319 322 330 311 306 318 126 199 175 191 206 200 204 188 160 169 144
2 14 15 10 339 12 8 351 343 333 10 9 18 15 8 354 358 9 11 11 13 357 340 333 318 315 316 318 334 324 324 327 321 249 226 204 208 200 183 178 172 158 151 139
14 1 356 5 344 2 355 342 350 354 2 358 354 5 6 7 15 16 14 17 15 10 21 17 10 317 312 322 327 340 332 323 336 276 238 195 161 150 148 144 152 139 128 130
53 13 353 354 354 355 345 337 337 344 3 334 335 354 357 4 6 17 17 12 12 19 22 26 19 328 317 319 331 356 328 341 341 348 229 190 161 152 140 150 142 133 119 115
345 345 341 342 340 351 354 341 343 349 356 343 350 352 353 0 15 21 20 7 10 15 25 22 23 7 327 323 330 339 349 7 355 7 185 178 166 141 145 123 128 133 118 120
338 341 340 351 346 345 335 347 341 348 351 346 351 349 354 357 8 13 16 15 9 2 18 32 27 25 345 300 304 326 347 14 312 57 77 120 113 117 119 120 146 126 118 103
331 333 341 347 340 324 326 332 342 348 339 346 347 348 343 352 2 12 12 13 17 14 27 34 31 24 4 352 17 31 40 8 123 109 113 106 100 123 126 102 113 103 118 99
321 324 324 320 321 299 287 341 341 339 340 343 348 352 346 346 1 7 9 13 17 19 16 34 25 14 3 4 12 35 14 220 165 74 97 106 105 104 102 101 93 97 109 110
318 318 321 318 322 329 330 327 336 337 336 335 344 348 347 351 359 7 8 11 15 18 20 13 12 13 16 13 28 354 183 162 91 104 106 109 108 108 113 113 114 118 96 103
321 327 321 322 323 322 321 322 327 330 337 338 345 346 348 3 1 9 8 12 17 19 16 12 8 10 13 16 0 304 200 192 89 94 92 99 104 105 112 114 104 85 91 89